Date String (YYYY-MM-DD hh:mm:ss) UTC,Instrument flags,Ambient pressure (hPa),Sample flow (lpm),Bypass flow (lpm),Sample temperature (°C),Ambient temperature (°C),ASC tube jacket temperature (°C),LED temperature (°C),Box temperature (°C),Sample RH (%),Span deviation,Mass concentration (μg/m³),Mass concentration (μg/m³),Mass concentration (μg/m³)
DateTimeUTC,F1_M11,P_M11,Q1_M11,Q2_M11,T1_M11,T2_M11,T3_M11,T4_M11,T5_M11,U1_M11,ZSPAN_M11,X0_M11,X2_M11,X1_M11
2021-12-15 23:00:00,,0811.6,5.00,0.00,22.0,21.3,00.0,31.1,23.6,05.8,0000.0,0003.44,0000.61,0000.21
2021-12-15 23:01:00,,0811.9,5.01,0.00,22.0,21.2,00.0,31.1,23.6,05.8,0000.0,0003.36,0000.56,0000.20
2021-12-15 23:02:00,,0812.0,4.99,0.00,22.0,21.2,00.0,31.1,23.6,05.7,0000.0,0003.72,0000.54,0000.20
2021-12-15 23:03:00,,0812.1,5.00,0.00,21.9,21.2,00.0,31.1,23.5,05.7,0000.0,0003.74,0000.51,0000.20
2021-12-15 23:04:00,,0812.3,5.00,0.00,21.9,21.1,00.0,31.0,23.5,05.8,0000.0,0004.06,0000.48,0000.20
2021-12-15 23:05:00,,0812.4,4.99,0.00,21.9,21.1,00.0,31.0,23.5,05.8,0000.0,0003.90,0000.47,0000.20
2021-12-15 23:06:00,,0812.5,5.00,0.00,21.9,21.1,00.0,31.0,23.5,05.8,0000.0,0004.04,0000.51,0000.20
2021-12-15 23:07:00,,0812.5,5.00,0.00,21.9,21.1,00.0,31.0,23.5,05.8,0000.0,0004.10,0000.54,0000.20
2021-12-15 23:08:00,,0812.6,5.00,0.00,21.9,21.1,00.0,31.0,23.5,05.8,0000.0,0004.11,0000.55,0000.20
2021-12-15 23:09:00,,0812.6,5.02,0.00,21.9,21.1,00.0,31.0,23.5,05.8,0000.0,0004.09,0000.52,0000.20
2021-12-15 23:10:00,,0812.6,4.99,0.00,21.9,21.2,00.0,31.0,23.6,05.9,0000.0,0005.25,0000.50,0000.19
2021-12-15 23:11:00,,0812.6,4.99,0.00,21.9,21.2,00.0,31.0,23.6,06.0,0000.0,0005.45,0000.51,0000.19
2021-12-15 23:12:00,,0812.7,5.00,0.00,21.9,21.2,00.0,31.0,23.6,06.0,0000.0,0005.51,0000.53,0000.19
2021-12-15 23:13:00,,0812.9,5.00,0.00,21.9,21.2,00.0,31.0,23.6,06.0,0000.0,0005.22,0000.59,0000.19
2021-12-15 23:14:00,,0812.8,5.00,0.00,21.9,21.3,00.0,30.9,23.5,06.0,0000.0,0004.51,0000.59,0000.19
2021-12-15 23:15:00,,0812.9,5.00,0.00,21.9,21.2,00.0,30.9,23.6,05.9,0000.0,0003.60,0000.56,0000.19
2021-12-15 23:16:00,,0813.0,5.00,0.00,21.9,21.2,00.0,30.9,23.6,05.6,0000.0,0003.94,0000.52,0000.19
2021-12-15 23:17:00,,0813.0,4.99,0.00,21.9,21.2,00.0,30.9,23.5,05.5,0000.0,0003.77,0000.48,0000.18
2021-12-15 23:18:00,,0812.9,5.02,0.00,21.9,21.2,00.0,30.9,23.6,05.7,0000.0,0004.10,0000.46,0000.18
2021-12-15 23:19:00,,0813.3,5.00,0.00,21.9,21.2,00.0,30.9,23.6,05.7,0000.0,0004.21,0000.47,0000.18
2021-12-15 23:20:00,,0813.0,4.99,0.00,21.9,21.2,00.0,30.9,23.6,05.7,0000.0,0004.18,0000.46,0000.18
2021-12-15 23:21:00,,0812.8,5.01,0.00,21.9,21.2,00.0,30.9,23.6,05.8,0000.0,0003.07,0000.45,0000.18
2021-12-15 23:22:00,,0812.8,5.00,0.00,21.9,21.2,00.0,30.9,23.5,05.9,0000.0,0002.67,0000.43,0000.18
2021-12-15 23:23:00,,0812.8,5.00,0.00,21.9,21.1,00.0,30.9,23.6,05.9,0000.0,0002.59,0000.40,0000.18
2021-12-15 23:24:00,,0812.5,5.01,0.00,21.9,21.3,00.0,30.9,23.6,06.1,0000.0,0002.45,0000.36,0000.18
2021-12-15 23:25:00,,0812.5,5.00,0.00,22.0,22.0,00.0,30.9,23.8,06.0,0000.0,0002.50,0000.36,0000.18
2021-12-15 23:26:00,,0812.4,5.01,0.00,22.1,22.8,00.0,31.0,24.1,06.0,0000.0,0002.51,0000.37,0000.17
2021-12-15 23:27:00,,0812.4,5.00,0.00,22.2,22.8,00.0,31.0,24.2,05.9,0000.0,0001.60,0000.35,0000.18
2021-12-15 23:28:00,,0812.6,4.99,0.00,22.2,22.6,00.0,31.0,24.1,05.8,0000.0,0001.58,0000.35,0000.18
2021-12-15 23:29:00,,0812.5,5.00,0.00,22.2,22.3,00.0,31.1,24.0,05.9,0000.0,0001.39,0000.39,0000.18
2021-12-15 23:30:00,,0812.5,5.01,0.00,22.2,22.0,00.0,31.1,24.0,05.7,0000.0,0001.42,0000.39,0000.18
2021-12-15 23:31:00,,0812.6,4.99,0.00,22.2,21.9,00.0,31.1,23.9,05.7,0000.0,0001.41,0000.40,0000.18
2021-12-15 23:32:00,,0812.7,5.01,0.00,22.2,21.7,00.0,31.1,23.9,06.0,0000.0,0001.43,0000.39,0000.18
2021-12-15 23:33:00,,0812.8,5.01,0.00,22.2,21.6,00.0,31.1,23.9,06.2,0000.0,0002.85,0000.41,0000.18
2021-12-15 23:34:00,,0812.7,5.00,0.00,22.1,21.6,00.0,31.1,23.9,06.3,0000.0,0002.99,0000.42,0000.18
2021-12-15 23:35:00,,0812.7,5.01,0.00,22.1,21.5,00.0,31.1,23.8,06.3,0000.0,0003.03,0000.44,0000.17
2021-12-15 23:36:00,,0812.7,4.99,0.00,22.1,21.4,00.0,31.1,23.7,06.2,0000.0,0002.91,0000.43,0000.17
2021-12-15 23:37:00,,0812.7,5.01,0.00,22.1,21.4,00.0,31.1,23.7,06.2,0000.0,0002.60,0000.42,0000.17
2021-12-15 23:38:00,,0812.8,4.98,0.00,22.0,21.3,00.0,31.1,23.6,06.1,0000.0,0002.71,0000.45,0000.18
2021-12-15 23:39:00,,0813.1,5.01,0.00,22.0,21.3,00.0,31.1,23.5,06.1,0000.0,0002.75,0000.46,0000.17
2021-12-15 23:40:00,,0813.1,4.99,0.00,22.0,21.2,00.0,31.1,23.6,06.0,0000.0,0003.26,0000.46,0000.18
2021-12-15 23:41:00,,0813.1,5.00,0.00,22.0,21.2,00.0,31.0,23.6,06.3,0000.0,0003.61,0000.46,0000.18
2021-12-15 23:42:00,,0813.3,5.00,0.00,21.9,21.1,00.0,31.0,23.5,06.4,0000.0,0003.60,0000.45,0000.18
2021-12-15 23:43:00,,0813.3,5.00,0.00,21.9,21.1,00.0,31.0,23.4,06.3,0000.0,0004.16,0000.45,0000.18
2021-12-15 23:44:00,,0813.4,5.00,0.00,21.8,21.0,00.0,31.0,23.4,06.3,0000.0,0002.98,0000.49,0000.19
2021-12-15 23:45:00,,0813.5,5.00,0.00,21.8,21.0,00.0,31.0,23.3,06.4,0000.0,0002.83,0000.49,0000.19
2021-12-15 23:46:00,,0813.6,4.99,0.00,21.8,20.9,00.0,30.9,23.2,06.3,0000.0,0002.75,0000.46,0000.20
2021-12-15 23:47:00,,0813.5,4.99,0.00,21.7,20.8,00.0,30.9,23.2,06.4,0000.0,0004.02,0000.47,0000.20
2021-12-15 23:48:00,,0813.7,5.00,0.00,21.7,20.8,00.0,30.9,23.2,06.4,0000.0,0004.85,0000.47,0000.21
2021-12-15 23:49:00,,0813.4,5.01,0.00,21.7,21.3,00.0,30.9,23.4,06.3,0000.0,0005.52,0000.44,0000.20
2021-12-15 23:50:00,,0813.5,4.99,0.00,21.9,22.3,00.0,30.9,23.7,06.4,0000.0,0006.25,0000.43,0000.20
2021-12-15 23:51:00,,0814.0,5.01,0.00,22.0,22.9,00.0,31.0,24.0,06.3,0000.0,0005.77,0000.43,0000.20
2021-12-15 23:52:00,,0814.1,4.99,0.00,22.1,22.7,00.0,31.0,24.0,06.3,0000.0,0005.09,0000.39,0000.20
2021-12-15 23:53:00,,0813.9,5.01,0.00,22.1,22.3,00.0,31.0,23.9,06.4,0000.0,0005.04,0000.38,0000.20
2021-12-15 23:54:00,,0814.2,5.00,0.00,22.0,22.1,00.0,31.0,23.8,06.4,0000.0,0004.57,0000.39,0000.20
2021-12-15 23:55:00,,0813.5,5.00,0.00,22.0,21.8,00.0,31.0,23.7,06.4,0000.0,0004.40,0000.34,0000.19
2021-12-15 23:56:00,,0813.6,5.01,0.00,21.9,21.6,00.0,31.0,23.5,06.6,0000.0,0004.22,0000.30,0000.18
2021-12-15 23:57:00,,0814.0,4.99,0.00,21.9,21.4,00.0,31.0,23.4,06.6,0000.0,0004.29,0000.32,0000.18
2021-12-15 23:58:00,,0814.0,5.01,0.00,21.9,21.3,00.0,31.0,23.4,06.7,0000.0,0003.52,0000.34,0000.17
2021-12-15 23:59:00,,0814.1,5.00,0.00,21.9,21.2,00.0,31.0,23.5,06.7,0000.0,0002.69,0000.35,0000.17
